Port Orchard, WA

2:51 PM PST on February 13, 2016 (GMT -0800)
Bremerton National

Weather History for KPWT - May, 2012

Change the Weather History Date:

Tuesday, May 1, 2012

  Actual Average Record
Temperature  
Mean Temperature 42 °F -  
Max Temperature 53 °F 57 °F 86 °F (1998)
Min Temperature 32 °F 38 °F 28 °F (2013)
Degree Days  
Heating Degree Days 22    
Moisture  
Dew Point 30 °F    
Average Humidity 63    
Maximum Humidity 87    
Minimum Humidity 38    
Precipitation  
Precipitation 0.00 in - - ()
Sea Level Pressure  
Sea Level Pressure 29.96 in    
Wind  
Wind Speed 13 mph (South)    
Max Wind Speed 24 mph    
Max Gust Speed 32 mph    
Visibility 10 miles    
Events      
Averages and records for this station are not official NWS values.
T = Trace of Precipitation, MM = Missing Value Source: NWS Daily Summary

Daily Weather History Graph

Daily Weather History Graph

Search for Another Location

Airport or City:

Trip Planner

Search our weather history database for the weather conditions in past years. The results will help you decide how hot, cold, wet, or windy it might be!

Date:

Astronomy

May. 01, 2012 Rise Set
Actual Time 5:53 AM PDT 8:23 PM PDT
Civil Twilight 5:18 AM PDT 8:58 PM PDT
Nautical Twilight 4:35 AM PDT 9:41 PM PDT
Astronomical Twilight 3:46 AM PDT 10:32 PM PDT
Moon 3:14 PM PDT (5/1) 3:14 AM PDT (5/1)
Length of Visible Light 15h 39m
Length of Day
14h 30m
Waxing Gibbous, 75% of the Moon is Illuminated
May 1
Waxing Gibbous
May 5
Full
May 12
Last Quarter
May 20
New
May 28
First Quarter

Hourly Weather History & Observations

Time (PDT) Temp. Windchill Dew Point Humidity Pressure Visibility Wind Dir Wind Speed Gust Speed Precip Events Conditions
12:15 AM 35.6 °F 29.2 °F 32.0 °F 87% 29.93 in 10.0 mi South 8.1 mph - N/A   Overcast
12:35 AM 35.6 °F 26.6 °F 32.0 °F 87% 29.93 in 10.0 mi South 13.8 mph 19.6 mph N/A   Overcast
12:55 AM 35.6 °F 29.2 °F 32.0 °F 87% 29.94 in 10.0 mi South 8.1 mph 16.1 mph N/A   Overcast
1:15 AM 35.6 °F 27.5 °F 32.0 °F 87% 29.94 in 10.0 mi South 11.5 mph - N/A   Overcast
1:35 AM 35.6 °F 27.1 °F 32.0 °F 87% 29.94 in 10.0 mi South 12.7 mph 18.4 mph N/A   Overcast
1:55 AM 37.4 °F 28.9 °F 32.0 °F 81% 29.95 in 10.0 mi SSW 13.8 mph 18.4 mph N/A   Overcast
2:15 AM 37.4 °F 28.2 °F 32.0 °F 81% 29.94 in 10.0 mi South 16.1 mph - N/A   Overcast
2:35 AM 35.6 °F 27.1 °F 32.0 °F 87% 29.95 in 10.0 mi SSW 12.7 mph - N/A   Overcast
2:55 AM 35.6 °F 27.5 °F 32.0 °F 87% 29.94 in 10.0 mi South 11.5 mph - N/A   Overcast
3:15 AM 35.6 °F 26.2 °F 30.2 °F 81% 29.95 in 10.0 mi South 15.0 mph - N/A   Mostly Cloudy
3:35 AM 35.6 °F 26.6 °F 30.2 °F 81% 29.94 in 10.0 mi South 13.8 mph - N/A   Scattered Clouds
4:15 AM 35.6 °F 26.6 °F 30.2 °F 81% 29.95 in 10.0 mi South 13.8 mph - N/A   Scattered Clouds
4:35 AM 33.8 °F 25.3 °F 30.2 °F 87% 29.96 in 10.0 mi South 11.5 mph - N/A   Clear
4:55 AM 35.6 °F 27.1 °F 28.4 °F 75% 29.96 in 10.0 mi South 12.7 mph - N/A   Clear
5:35 AM 33.8 °F 24.3 °F 30.2 °F 87% 29.96 in 10.0 mi South 13.8 mph - N/A   Clear
5:55 AM 33.8 °F 24.3 °F 28.4 °F 81% 29.96 in 10.0 mi South 13.8 mph - N/A   Clear
6:15 AM 32.0 °F 22.1 °F 28.4 °F 87% 29.97 in 10.0 mi South 13.8 mph 20.7 mph N/A   Clear
6:35 AM 32.0 °F 21.6 °F 28.4 °F 87% 29.97 in 10.0 mi South 15.0 mph - N/A   Clear
7:35 AM 33.8 °F 23.2 °F 30.2 °F 87% 29.98 in 10.0 mi South 17.3 mph 21.9 mph N/A   Clear
7:55 AM 35.6 °F 26.6 °F 30.2 °F 81% 29.99 in 10.0 mi South 13.8 mph 24.2 mph N/A   Partly Cloudy
8:15 AM 37.4 °F 28.5 °F 32.0 °F 81% 29.98 in 10.0 mi South 15.0 mph 20.7 mph N/A   Mostly Cloudy
8:35 AM 39.2 °F 29.8 °F 32.0 °F 75% 29.98 in 10.0 mi SSW 18.4 mph 23.0 mph N/A   Scattered Clouds
8:55 AM 39.2 °F 30.5 °F 32.0 °F 75% 29.99 in 10.0 mi SSW 16.1 mph 19.6 mph N/A   Scattered Clouds
9:15 AM 42.8 °F 34.8 °F 32.0 °F 66% 29.99 in 10.0 mi SSW 17.3 mph 25.3 mph N/A   Scattered Clouds
9:35 AM 42.8 °F 34.8 °F 30.2 °F 61% 29.99 in 10.0 mi South 17.3 mph 26.5 mph N/A   Scattered Clouds
9:55 AM 44.6 °F 37.2 °F 30.2 °F 57% 29.98 in 10.0 mi South 17.3 mph 24.2 mph N/A   Mostly Cloudy
10:15 AM 44.6 °F 36.9 °F 32.0 °F 61% 29.98 in 10.0 mi SSW 18.4 mph - N/A   Scattered Clouds
10:35 AM 44.6 °F 36.9 °F 30.2 °F 57% 29.98 in 10.0 mi SSW 18.4 mph 24.2 mph N/A   Partly Cloudy
10:55 AM 46.4 °F 38.7 °F 30.2 °F 53% 29.98 in 10.0 mi SSW 20.7 mph 28.8 mph N/A   Partly Cloudy
11:15 AM 50.0 °F - 30.2 °F 47% 29.98 in 10.0 mi SSW 17.3 mph 24.2 mph N/A   Partly Cloudy
11:35 AM 51.8 °F - 30.2 °F 44% 29.98 in 10.0 mi South 20.7 mph 28.8 mph N/A   Partly Cloudy
11:55 AM 51.8 °F - 30.2 °F 44% 29.97 in 10.0 mi South 17.3 mph 26.5 mph N/A   Clear
12:15 PM 50.0 °F - 30.2 °F 47% 29.98 in 10.0 mi SSW 24.2 mph 32.2 mph N/A   Scattered Clouds
12:35 PM 51.8 °F - 30.2 °F 44% 29.96 in 10.0 mi SSW 21.9 mph 29.9 mph N/A   Scattered Clouds
12:55 PM 53.6 °F - 30.2 °F 41% 29.96 in 10.0 mi SSW 19.6 mph 27.6 mph N/A   Clear
1:15 PM 53.6 °F - 30.2 °F 41% 29.95 in 10.0 mi SSW 23.0 mph 28.8 mph N/A   Clear
1:35 PM 53.6 °F - 32.0 °F 44% 29.96 in 10.0 mi SSW 19.6 mph 25.3 mph N/A   Partly Cloudy
1:55 PM 53.6 °F - 28.4 °F 38% 29.95 in 7.0 mi South 18.4 mph 26.5 mph N/A   Partly Cloudy
2:15 PM 53.6 °F - 30.2 °F 41% 29.95 in 10.0 mi SSW 23.0 mph 28.8 mph N/A   Partly Cloudy
2:35 PM 51.8 °F - 30.2 °F 44% 29.95 in 10.0 mi South 19.6 mph 28.8 mph N/A   Partly Cloudy
3:15 PM 53.6 °F - 30.2 °F 41% 29.95 in 10.0 mi SSW 18.4 mph 25.3 mph N/A   Clear
3:35 PM 53.6 °F - 32.0 °F 44% 29.95 in 10.0 mi South 18.4 mph 28.8 mph N/A   Partly Cloudy
4:15 PM 51.8 °F - 33.8 °F 50% 29.95 in 10.0 mi South 18.4 mph 21.9 mph N/A   Partly Cloudy
4:35 PM 51.8 °F - 32.0 °F 47% 29.94 in 10.0 mi South 16.1 mph 20.7 mph N/A   Clear
4:55 PM 50.0 °F - 30.2 °F 47% 29.94 in 10.0 mi South 15.0 mph - N/A   Clear
5:15 PM 50.0 °F - 30.2 °F 47% 29.94 in 10.0 mi SSW 18.4 mph - N/A   Clear
5:35 PM 50.0 °F - 28.4 °F 43% 29.95 in 10.0 mi SSW 18.4 mph 24.2 mph N/A   Clear
5:55 PM 50.0 °F - 28.4 °F 43% 29.95 in 10.0 mi SSW 19.6 mph 26.5 mph N/A   Clear
6:15 PM 48.2 °F - 28.4 °F 46% 29.94 in 10.0 mi SSW 15.0 mph - N/A   Clear
6:35 PM 46.4 °F 40.7 °F 28.4 °F 50% 29.94 in 10.0 mi SSW 12.7 mph - N/A   Mostly Cloudy
6:55 PM 46.4 °F 41.9 °F 28.4 °F 50% 29.94 in 10.0 mi SSW 9.2 mph - N/A   Overcast
7:15 PM 46.4 °F 42.4 °F 28.4 °F 50% 29.94 in 10.0 mi SSW 8.1 mph - N/A   Mostly Cloudy
7:35 PM 46.4 °F 41.5 °F 30.2 °F 53% 29.95 in 10.0 mi South 10.4 mph - N/A   Scattered Clouds
7:55 PM 44.6 °F 41.4 °F 30.2 °F 57% 29.95 in 10.0 mi South 5.8 mph - N/A   Mostly Cloudy
8:15 PM 44.6 °F 40.7 °F 30.2 °F 57% 29.96 in 10.0 mi South 6.9 mph - N/A   Overcast
8:35 PM 44.6 °F 40.7 °F 30.2 °F 57% 29.97 in 10.0 mi South 6.9 mph - N/A   Mostly Cloudy
8:55 PM 42.8 °F 39.3 °F 30.2 °F 61% 29.96 in 10.0 mi South 5.8 mph - N/A   Overcast
9:15 PM 42.8 °F 41.1 °F 30.2 °F 61% 29.97 in 10.0 mi South 3.5 mph - N/A   Overcast
9:35 PM 42.8 °F 40.1 °F 30.2 °F 61% 29.98 in 10.0 mi SSE 4.6 mph - N/A   Overcast
9:55 PM 42.8 °F 40.1 °F 30.2 °F 61% 29.98 in 10.0 mi South 4.6 mph - N/A   Overcast
10:15 PM 41.0 °F 38.0 °F 30.2 °F 65% 29.98 in 10.0 mi South 4.6 mph - N/A   Overcast
10:35 PM 41.0 °F 38.0 °F 30.2 °F 65% 29.99 in 10.0 mi South 4.6 mph - N/A   Overcast
10:55 PM 41.0 °F 37.1 °F 30.2 °F 65% 29.98 in 10.0 mi South 5.8 mph - N/A   Overcast
11:15 PM 41.0 °F 37.1 °F 30.2 °F 65% 29.97 in 10.0 mi South 5.8 mph - N/A   Overcast
11:35 PM 41.0 °F 38.0 °F 30.2 °F 65% 29.98 in 10.0 mi South 4.6 mph - N/A   Overcast
11:55 PM 41.0 °F 38.0 °F 30.2 °F 65% 29.98 in 10.0 mi South 4.6 mph - N/A   Overcast